Regional Weather Roundup
Issued by NWS

Home | Current Version | Previous Version | Graphics & Text | Print | Product List | Glossary On
Versions: 1 2 3 4 5 6 7 8 9 10 11 12 13 14 15 16 17 18 19 20 21 22 23 24 25 26 27
000
ASUS45 KCYS 261610
RWRWY

WYOMING REGIONAL WEATHER ROUNDUP
NATIONAL WEATHER SERVICE CHEYENNE WY
1000 AM MDT MON SEP 26 2016

NOTE:  "FAIR" INDICATES FEW OR NO CLOUDS BELOW 12,000 FEET
WITH NO SIGNIFICANT WEATHER AND/OR OBSTRUCTIONS TO VISIBILITY.

WYZ001-261700-
YELLOWSTONE NATIONAL PARK

CITY           SKY/WX    TMP DP  RH WIND       PRES   REMARKS
LK YELLOWSTONE   N/A     44  39  82 E5        30.57S
W YELLOWSTONE  NOT AVBL

$$
WYZ002>013-054>058-071-098>099-261700-
NORTHERN WYOMING

CITY           SKY/WX    TMP DP  RH WIND       PRES   REMARKS
JACKSON        SUNNY     45  37  76 MISG      30.54S
CODY           FAIR      57  43  58 CALM      30.42S
GREYBULL       FAIR      52  46  80 CALM      30.40S
WORLAND        FAIR      52  45  77 CALM      30.40F
SHERIDAN       FAIR      64  44  48 NW6       30.36S
BUFFALO        FAIR      62  42  47 N6        30.40S
GILLETTE       FAIR      60  42  51 NW14      30.35S
HULETT         FAIR      57  41  54 SW6       30.36R
NEWCASTLE      CLOUDY    54  36  50 NW10      30.37S

$$
WYZ014>020-022>026-101>103-261700-
CENTRAL WYOMING

CITY           SKY/WX    TMP DP  RH WIND       PRES   REMARKS
BIG PINEY      FAIR      49  38  65 S5        30.51S
PINEDALE       FAIR      48  36  61 CALM      30.52S
DUBOIS         FAIR      55  36  47 N12       30.47F
LANDER         FAIR      53  42  66 E3        30.44S
RIVERTON       FAIR      51  46  83 SE5       30.45S
CASPER         FAIR      58  40  51 SW10      30.43R
DOUGLAS        FAIR      56  40  55 NW5       30.43R

$$
WYZ021-027>030-104>119-261700-
SOUTHERN WYOMING

CITY           SKY/WX    TMP DP  RH WIND       PRES   REMARKS
EVANSTON       FAIR      50  34  54 SW3       30.53R
FORT BRIDGER   FAIR      55  37  49 W12       30.54S
ROCK SPRINGS   FAIR      52  37  56 W6        30.50S
DIXON          FAIR      50  33  52 W3        30.54S
RAWLINS        FAIR      53  35  50 CALM      30.50S
SARATOGA       FAIR      54  32  43 SE7       30.52S
LARAMIE        FAIR      51  31  46 CALM      30.49S
CHEYENNE       FAIR      61  34  36 N6        30.44S
TORRINGTON     FAIR      55  41  59 W8        30.38R
PINE BLUFFS    FAIR      63  34  34 N7        30.42S

$$




USA.gov is the U.S. government's official web portal to all federal, state and local government web resources and services.